Printer-friendly version

IAU Minor Planet Center

Minor Planet Center

MPEC 2006-W05 : 2006 VB14

The following Minor Planet Electronic Circular may be linked-to from your own Web pages, but must not otherwise be redistributed electronically.


Read MPEC 2006-W04 Read MPEC 2006-W06


M.P.E.C. 2006-W05                                Issued 2006 Nov. 16, 14:32 UT

     The Minor Planet Electronic Circulars contain information on unusual
         minor planets and routine data on comets.  They are published
   on behalf of Commission 20 of the International Astronomical Union by the
          Minor Planet Center, Smithsonian Astrophysical Observatory,
                          Cambridge, MA 02138, U.S.A.

             Prepared using the Tamkin Foundation Computer Network

                              MPC@CFA.HARVARD.EDU
          URL http://cfa-www.harvard.edu/iau/mpc.html  ISSN 1523-6714

                                   2006 VB14

Observations:
     K06V14B  C2006 11 15.41375 09 32 28.70 +31 12 45.0          18.8   EW005704
     K06V14B  C2006 11 15.42640 09 32 28.96 +31 12 10.4          19.0   EW005704
     K06V14B* C2006 11 15.42712 09 32 28.96 +31 12 08.4          18.3 V EW005703
     K06V14B  C2006 11 15.43373 09 32 29.18 +31 11 50.8          18.6 V EW005703
     K06V14B  C2006 11 15.43886 09 32 29.21 +31 11 37.0          19.3   EW005704
     K06V14B  C2006 11 15.44690 09 32 29.47 +31 11 14.8          18.6 V EW005703
     K06V14B  C2006 11 15.45130 09 32 29.52 +31 11 01.8          19.0   EW005704
     K06V14B  C2006 11 15.50463 09 32 30.73 +31 08 35.9          18.6 V EW005703
     K06V14B  C2006 11 15.50528 09 32 30.76 +31 08 34.0          18.5 V EW005703
     K06V14B  C2006 11 15.50591 09 32 30.72 +31 08 32.8          18.4 V EW005703
     K06V14B  C2006 11 15.50656 09 32 30.79 +31 08 30.8          18.6 V EW005703
     K06V14B  C2006 11 16.30584 09 32 56.54 +30 30 27.8          18.3 R EW005651
     K06V14B  C2006 11 16.31029 09 32 56.68 +30 30 15.2          18.4 R EW005651
     K06V14B  C2006 11 16.31475 09 32 56.79 +30 30 02.6          18.4 R EW005651
     K06V14B  C2006 11 16.36997 09 32 58.19 +30 27 25.7          18.7 R EW005448
     K06V14B  C2006 11 16.37677 09 32 58.37 +30 27 06.1          18.7 R EW005448
     K06V14B  C2006 11 16.38358 09 32 58.54 +30 26 46.8          18.8 R EW005448
     K06V14B  C2006 11 16.39959 09 32 58.98 +30 26 00.5          18.6 V EW005G96
     K06V14B  C2006 11 16.40716 09 32 59.14 +30 25 38.8          18.5 V EW005G96
     K06V14B  C2006 11 16.41468 09 32 59.29 +30 25 17.0          18.6 V EW005G96
     K06V14B  C2006 11 16.42215 09 32 59.47 +30 24 55.9          18.3 V EW005G96
     K06V14B 2C2006 11 16.42591 09 32 59.45 +30 24 46.1          18.0 R EW005H06
     K06V14B 2C2006 11 16.43149 09 32 59.61 +30 24 29.9          18.0 R EW005H06
     K06V14B 2C2006 11 16.43702 09 32 59.66 +30 24 14.5          18.0 R EW005H06
     K06V14B 5C2006 11 16.51319409 33 01.512+30 20 32.08         18.5 R EW005673
     K06V14B 5C2006 11 16.51736109 33 01.591+30 20 20.02                EW005673
     K06V14B 5C2006 11 16.52268509 33 01.698+30 20 04.53                EW005673
     K06V14B 5C2006 11 16.52731509 33 01.777+30 19 50.94                EW005673

Observer details:
448 Desert Moon Observatory.  Observer B. L. Stevens.  0.3-m
    Schmidt-Cassegrain + CCD.
651 Grasslands Observatory, Tucson.  Observer J. E. McGaha.  0.62-m f/5.1
    reflector + CCD.
673 Table Mountain Observatory, Wrightwood.  Observer J. Young.  0.61-m f/16
    Cassegrain + CCD.
703 Catalina Sky Survey.  Observer R. E. Hill.  Measurers E. C. Beshore,
    E. J. Christensen, G. J. Garradd, A. R. Gibbs, A. D. Grauer, R. E. Hill,
    R. A. Kowalski, S. M. Larson, R. H. McNaught.  0.68-m Schmidt + CCD.
704 Lincoln Laboratory ETS, New Mexico.  Observers M. Bezpalko, D. Torres,
    R. Kracke, G. Spitz, J. Kistler.  Measurers J. Stuart, S. Scruggs.  1.0-m
    f/2.15 reflector + CCD.
G96 Mt. Lemmon Survey.  Observer R. A. Kowalski.  Measurers E. C. Beshore,
    E. J. Christensen, G. J. Garradd, A. R. Gibbs, A. D. Grauer, R. E. Hill,
    R. A. Kowalski, S. M. Larson, R. H. McNaught.  1.5-m reflector + CCD.
H06 RAS Observatory, Mayhill.  Observer R. Hutsebaut.  0.25-m reflector + CCD.

Orbital elements:
2006 VB14                                                Earth MOID = 0.0715 AU
Epoch 2006 Sept. 22.0 TT = JDT 2454000.5                MPC
M 107.35757              (2000.0)            P               Q
n   1.51049668     Peri.  346.53038     -0.39675442     +0.76691371
a   0.7522974      Node   258.04144     -0.78716765     -0.56693124
e   0.4430477      Incl.   31.03754     -0.47217902     +0.30071969
P   0.65           H   18.6           G   0.15           U   9
Residuals in seconds of arc
061115 704  1.3+  0.0     061115 703  0.2-  0.2+    061116 G96  0.3-  0.3-
061115 704  0.7+  0.2-    061116 651  0.1+  0.4+    061116 H06  0.0   0.1+
061115 703  0.8-  0.2-    061116 651  0.2+  0.4+    061116 H06  0.6+  0.0
061115 703  0.1-  0.2+    061116 651  0.1-  0.4+    061116 H06  0.3-  0.5+
061115 704  0.2+  0.5+    061116 448  0.3-  0.3-    061116 673  0.2+  0.2+
061115 703  0.3-  0.2+    061116 448  0.1-  0.5-    061116 673  0.2+  0.3+
061115 704  0.5+  0.7-    061116 448  0.0   0.4-    061116 673  0.3+  0.3+
061115 703  0.4-  0.1-    061116 G96  0.0   0.3-    061116 673  0.2+  0.2+
061115 703  0.2-  0.2-    061116 G96  0.2-  0.4-
061115 703  0.9-  0.4+    061116 G96  0.5-  0.6-

Ephemeris:
2006 VB14                a,e,i = 0.75, 0.44, 31                  q = 0.4190
Date    TT    R. A. (2000) Decl.     Delta      r     Elong.  Phase     V
2006 11 11    09 29.80   +34 17.0    0.375    1.085    94.4    65.4    19.0
2006 11 13    09 31.08   +32 58.2    0.357    1.085    95.7    65.2    18.8
2006 11 15    09 32.23   +31 31.8    0.338    1.084    97.0    65.0    18.7
2006 11 17    09 33.25   +29 56.5    0.320    1.082    98.2    64.7    18.6
2006 11 19    09 34.11   +28 10.8    0.302    1.080    99.5    64.5    18.5
2006 11 21    09 34.80   +26 12.5    0.284    1.078   100.7    64.2    18.3
2006 11 23    09 35.31   +23 59.3    0.266    1.075   102.0    64.0    18.2
2006 11 25    09 35.61   +21 28.2    0.249    1.072   103.2    63.8    18.0
2006 11 27    09 35.68   +18 35.4    0.231    1.068   104.3    63.6    17.8
2006 11 29    09 35.50   +15 16.4    0.215    1.064   105.3    63.5    17.6
2006 12 01    09 35.04   +11 25.8    0.199    1.059   106.2    63.4    17.5
2006 12 03    09 34.25   +06 57.3    0.183    1.054   106.9    63.6    17.3
2006 12 05    09 33.09   +01 44.1    0.169    1.048   107.2    63.9    17.1
2006 12 07    09 31.49   -04 20.2    0.157    1.042   107.0    64.7    17.0
2006 12 09    09 29.34   -11 19.9    0.147    1.036   106.2    65.9    16.8
2006 12 11    09 26.52   -19 14.2    0.139    1.029   104.7    67.8    16.8
2006 12 13    09 22.84   -27 54.2    0.133    1.021   102.3    70.4    16.7
2006 12 15    09 18.00   -37 01.3    0.131    1.013    99.1    73.6    16.8
2006 12 17    09 11.58   -46 09.8    0.132    1.005    95.3    77.2    16.9
2006 12 19    09 02.85   -54 53.0    0.137    0.996    91.2    80.9    17.1
2006 12 21    08 50.53   -62 50.0    0.144    0.987    87.0    84.6    17.3
2006 12 23    08 32.18   -69 48.6    0.153    0.977    83.1    88.0    17.6
2006 12 25    08 02.59   -75 43.1    0.165    0.967    79.4    91.0    17.8
2006 12 27    07 09.48   -80 26.3    0.178    0.956    76.0    93.6    18.1
2006 12 29    05 26.78   -83 34.5    0.192    0.945    72.9    95.9    18.3
2006 12 31    02 53.17   -84 16.5    0.207    0.933    70.1    97.8    18.6

Timothy B. Spahr             (C) Copyright 2006 MPC           M.P.E.C. 2006-W05

Read MPEC 2006-W04 Read MPEC 2006-W06


Our Web policy. Index to the CBAT/MPC/ICQ pages.


Valid HTML 4.01!